| time (UTC) | temp C | wind direction | speed KPH | gust KPH | rain 1hr cm | rain 24hr cm | rain mn cm | humidity % | barometer mb |
| 20260510205138 | 26 | 225 | 0.0 | 0.0 | 0.00 | 0.00 | 0.00 | 38 | 1006.0 |
| 20260510204552 | 26 | 248 | 8.0 | 9.7 | 0.00 | 0.00 | 0.00 | 38 | 1006.0 |
| 20260510203930 | 25 | 248 | 3.2 | 3.2 | 0.00 | 0.00 | 0.00 | 39 | 1006.0 |
| 20260510203333 | 25 | 248 | 3.2 | 3.2 | 0.00 | 0.00 | 0.00 | 40 | 1006.0 |
| 20260510202745 | 24 | 248 | 8.0 | 8.0 | 0.00 | 0.00 | 0.00 | 41 | 1006.0 |
| 20260510202136 | 23 | 315 | 0.0 | 0.0 | 0.00 | 0.00 | 0.00 | 42 | 1006.0 |
| 20260510200912 | 23 | 90 | 3.2 | 3.2 | 0.00 | 0.00 | 0.00 | 46 | 1006.0 |
| 20260510200339 | 23 | 112 | 3.2 | 3.2 | 0.00 | 0.00 | 0.00 | 46 | 1006.0 |
| 20260510195720 | 23 | 112 | 0.0 | 0.0 | 0.00 | 0.00 | 0.00 | 48 | 1006.0 |
| 20260510195153 | 23 | 112 | 1.6 | 1.6 | 0.00 | 0.00 | 0.00 | 51 | 1006.0 |
| 20260510194535 | 24 | 112 | 0.0 | 0.0 | 0.00 | 0.00 | 0.00 | 43 | 1006.0 |
| 20260510193952 | 24 | 202 | 1.6 | 1.6 | 0.00 | 0.00 | 0.00 | 41 | 1006.0 |
| 20260510193321 | 24 | 135 | 3.2 | 3.2 | 0.00 | 0.00 | 0.00 | 38 | 1006.0 |
| 20260510192731 | 24 | 135 | 8.0 | 8.0 | 0.00 | 0.00 | 0.00 | 39 | 1006.0 |
| 20260510192132 | 24 | 90 | 3.2 | 3.2 | 0.00 | 0.00 | 0.00 | 40 | 1006.0 |
| 20260510191534 | 25 | 158 | 4.8 | 4.8 | 0.00 | 0.00 | 0.00 | 38 | 1006.0 |
| 20260510190926 | 25 | 112 | 0.0 | 0.0 | 0.00 | 0.00 | 0.00 | 37 | 1006.0 |
| 20260510190319 | 25 | 180 | 0.0 | 0.0 | 0.00 | 0.00 | 0.00 | 36 | 1006.0 |
| 20260510185121 | 26 | 248 | 6.4 | 6.4 | 0.00 | 0.00 | 0.00 | 34 | 1006.0 |
| 20260510184544 | 26 | 225 | 3.2 | 3.2 | 0.00 | 0.00 | 0.00 | 33 | 1006.0 |
| 20260510183943 | 26 | 225 | 6.4 | 8.0 | 0.00 | 0.00 | 0.00 | 34 | 1006.0 |
| 20260510183349 | 27 | 90 | 0.0 | 0.0 | 0.00 | 0.00 | 0.00 | 32 | 1006.0 |
| 20260510182738 | 27 | 270 | 9.7 | 9.7 | 0.00 | 0.00 | 0.00 | 33 | 1006.0 |
| 20260510182115 | 27 | 135 | 3.2 | 3.2 | 0.00 | 0.00 | 0.00 | 31 | 1006.0 |
| 20260510181543 | 26 | 315 | 0.0 | 0.0 | 0.00 | 0.00 | 0.00 | 34 | 1006.0 |
| 20260510180934 | 26 | 225 | 3.2 | 3.2 | 0.00 | 0.00 | 0.00 | 34 | 1006.0 |
| 20260510180317 | 26 | 248 | 4.8 | 6.4 | 0.00 | 0.00 | 0.00 | 33 | 1006.0 |
| 20260510175741 | 26 | 292 | 11.3 | 11.3 | 0.00 | 0.00 | 0.00 | 34 | 1006.0 |
| 20260510175152 | 26 | 248 | 3.2 | 3.2 | 0.00 | 0.00 | 0.00 | 35 | 1006.0 |
| 20260510173950 | 26 | 202 | 8.0 | 8.0 | 0.00 | 0.00 | 0.00 | 35 | 1006.0 |
| 20260510173326 | 25 | 248 | 12.9 | 12.9 | 0.00 | 0.00 | 0.00 | 38 | 1006.0 |
| 20260510172724 | 25 | 225 | 3.2 | 3.2 | 0.00 | 0.00 | 0.00 | 37 | 1006.7 |
| 20260510172111 | 25 | 112 | 9.7 | 9.7 | 0.00 | 0.00 | 0.00 | 38 | 1006.7 |
| 20260510170336 | 25 | 248 | 4.8 | 4.8 | 0.00 | 0.00 | 0.00 | 37 | 1006.0 |
| 20260510165751 | 25 | 225 | 8.0 | 8.0 | 0.00 | 0.00 | 0.00 | 39 | 1006.0 |
| 20260510164545 | 24 | 248 | 8.0 | 8.0 | 0.00 | 0.00 | 0.00 | 38 | 1006.7 |
| 20260510163944 | 24 | 248 | 6.4 | 8.0 | 0.00 | 0.00 | 0.00 | 39 | 1006.7 |
| 20260510162724 | 24 | 68 | 0.0 | 0.0 | 0.00 | 0.00 | 0.00 | 39 | 1006.7 |
| 20260510161529 | 25 | 248 | 3.2 | 3.2 | 0.00 | 0.00 | 0.00 | 40 | 1006.7 |
| 20260510160950 | 24 | 112 | 3.2 | 3.2 | 0.00 | 0.00 | 0.00 | 40 | 1006.7 |
| 20260510155736 | 25 | 270 | 4.8 | 4.8 | 0.00 | 0.00 | 0.00 | 40 | 1006.7 |
| 20260510155150 | 25 | 90 | 0.0 | 0.0 | 0.00 | 0.00 | 0.00 | 42 | 1006.7 |
| 20260510154523 | 24 | 158 | 0.0 | 0.0 | 0.00 | 0.00 | 0.00 | 42 | 1006.7 |
| 20260510153949 | 24 | 68 | 0.0 | 0.0 | 0.00 | 0.00 | 0.00 | 42 | 1006.7 |
| 20260510153322 | 23 | 202 | 3.2 | 3.2 | 0.00 | 0.00 | 0.00 | 45 | 1006.7 |
| 20260510152733 | 23 | 202 | 0.0 | 0.0 | 0.00 | 0.00 | 0.00 | 45 | 1006.7 |
| 20260510152149 | 23 | 292 | 6.4 | 6.4 | 0.00 | 0.00 | 0.00 | 48 | 1006.7 |
| 20260510151535 | 23 | 180 | 4.8 | 4.8 | 0.00 | 0.00 | 0.00 | 46 | 1006.7 |
| 20260510150914 | 22 | 225 | 1.6 | 1.6 | 0.00 | 0.00 | 0.00 | 47 | 1006.7 |
| 20260510150339 | 22 | 112 | 0.0 | 0.0 | 0.00 | 0.00 | 0.00 | 49 | 1006.7 |
| 20260510145717 | 22 | 225 | 3.2 | 3.2 | 0.00 | 0.00 | 0.00 | 50 | 1006.7 |
| 20260510145138 | 23 | 68 | 0.0 | 0.0 | 0.00 | 0.00 | 0.00 | 49 | 1006.7 |
| 20260510144510 | 23 | 338 | 0.0 | 0.0 | 0.00 | 0.00 | 0.00 | 51 | 1006.7 |
| 20260510143926 | 23 | 338 | 0.0 | 0.0 | 0.00 | 0.00 | 0.00 | 45 | 1006.7 |
| 20260510143335 | 21 | 292 | 0.0 | 0.0 | 0.00 | 0.00 | 0.00 | 47 | 1006.7 |
| 20260510142713 | 18 | 292 | 0.0 | 0.0 | 0.00 | 0.00 | 0.00 | 64 | 1006.7 |
| 20260510142128 | 17 | 292 | 0.0 | 0.0 | 0.00 | 0.00 | 0.00 | 66 | 1006.7 |
| 20260510140929 | 18 | 292 | 0.0 | 0.0 | 0.00 | 0.00 | 0.00 | 67 | 1006.7 |
| 20260510135715 | 18 | 338 | 0.0 | 0.0 | 0.00 | 0.00 | 0.00 | 62 | 1006.7 |
| 20260510135116 | 18 | 338 | 0.0 | 0.0 | 0.00 | 0.00 | 0.00 | 63 | 1006.7 |
| 20260510134511 | 16 | 338 | 0.0 | 0.0 | 0.00 | 0.00 | 0.00 | 63 | 1006.7 |
| 20260510133348 | 13 | 292 | 0.0 | 0.0 | 0.00 | 0.00 | 0.00 | 77 | 1006.7 |
| 20260510132749 | 12 | 292 | 0.0 | 0.0 | 0.00 | 0.00 | 0.00 | 79 | 1006.7 |
| 20260510131517 | 12 | 292 | 0.0 | 0.0 | 0.00 | 0.00 | 0.00 | 78 | 1007.7 |
| 20260510130920 | 12 | 292 | 0.0 | 0.0 | 0.00 | 0.00 | 0.00 | 78 | 1007.7 |
| 20260510130331 | 13 | 315 | 0.0 | 0.0 | 0.00 | 0.00 | 0.00 | 79 | 1007.7 |
| 20260510125751 | 15 | 315 | 0.0 | 0.0 | 0.00 | 0.00 | 0.00 | 70 | 1007.7 |
| 20260510125144 | 14 | 338 | 0.0 | 0.0 | 0.00 | 0.00 | 0.00 | 64 | 1007.7 |
| 20260510123308 | 9 | 338 | 0.0 | 0.0 | 0.00 | 0.00 | 0.00 | 89 | 1007.7 |
| 20260510122729 | 9 | 338 | 0.0 | 0.0 | 0.00 | 0.00 | 0.00 | 90 | 1007.7 |
| 20260510122133 | 8 | 338 | 0.0 | 0.0 | 0.00 | 0.00 | 0.00 | 90 | 1007.7 |
| 20260510121511 | 8 | 338 | 0.0 | 0.0 | 0.00 | 0.00 | 0.00 | 91 | 1007.7 |
| 20260510120949 | 8 | 270 | 0.0 | 0.0 | 0.00 | 0.00 | 0.00 | 92 | 1007.7 |
| 20260510115743 | 8 | 270 | 0.0 | 0.0 | 0.00 | 0.00 | 0.00 | 92 | 1006.7 |
| 20260510114518 | 8 | 270 | 0.0 | 0.0 | 0.00 | 0.00 | 0.00 | 93 | 1006.7 |
| 20260510113914 | 8 | 270 | 0.0 | 0.0 | 0.00 | 0.00 | 0.00 | 92 | 1006.7 |
| 20260510112710 | 8 | 270 | 0.0 | 0.0 | 0.00 | 0.00 | 0.00 | 92 | 1006.7 |
| 20260510112131 | 8 | 270 | 0.0 | 0.0 | 0.00 | 0.00 | 0.00 | 92 | 1006.7 |
| 20260510111532 | 8 | 270 | 1.6 | 1.6 | 0.00 | 0.00 | 0.00 | 92 | 1006.7 |
| 20260510110933 | 8 | 270 | 0.0 | 0.0 | 0.00 | 0.00 | 0.00 | 92 | 1006.7 |
| 20260510110312 | 8 | 270 | 0.0 | 0.0 | 0.00 | 0.00 | 0.00 | 92 | 1006.7 |
| 20260510105747 | 8 | 270 | 0.0 | 0.0 | 0.00 | 0.00 | 0.00 | 93 | 1006.7 |
| 20260510105143 | 8 | 292 | 0.0 | 0.0 | 0.00 | 0.00 | 0.00 | 93 | 1006.7 |
| 20260510103934 | 8 | 292 | 0.0 | 0.0 | 0.00 | 0.00 | 0.00 | 93 | 1006.7 |
| 20260510103324 | 8 | 270 | 0.0 | 0.0 | 0.00 | 0.00 | 0.00 | 93 | 1006.7 |
| 20260510102717 | 8 | 270 | 0.0 | 0.0 | 0.00 | 0.00 | 0.00 | 93 | 1006.0 |
| 20260510102142 | 8 | 270 | 0.0 | 0.0 | 0.00 | 0.00 | 0.00 | 93 | 1006.0 |
| 20260510101510 | 8 | 270 | 0.0 | 0.0 | 0.00 | 0.00 | 0.00 | 93 | 1006.0 |
| 20260510100351 | 8 | 270 | 0.0 | 0.0 | 0.00 | 0.00 | 0.00 | 93 | 1006.0 |
| 20260510095710 | 8 | 270 | 0.0 | 0.0 | 0.00 | 0.00 | 0.00 | 92 | 1006.0 |
| 20260510095139 | 8 | 270 | 0.0 | 0.0 | 0.00 | 0.00 | 0.00 | 92 | 1006.0 |
| 20260510094539 | 8 | 270 | 0.0 | 0.0 | 0.00 | 0.00 | 0.00 | 92 | 1006.0 |
| 20260510093908 | 8 | 292 | 0.0 | 0.0 | 0.00 | 0.00 | 0.00 | 92 | 1006.0 |
| 20260510093327 | 8 | 292 | 0.0 | 0.0 | 0.00 | 0.00 | 0.00 | 92 | 1006.0 |
| 20260510092725 | 8 | 292 | 0.0 | 0.0 | 0.00 | 0.00 | 0.00 | 93 | 1006.0 |
| 20260510092129 | 8 | 292 | 0.0 | 0.0 | 0.00 | 0.00 | 0.00 | 92 | 1006.0 |
| 20260510091537 | 8 | 292 | 0.0 | 0.0 | 0.00 | 0.00 | 0.00 | 92 | 1006.0 |
| 20260510090909 | 8 | 292 | 0.0 | 0.0 | 0.00 | 0.00 | 0.00 | 92 | 1006.0 |
| 20260510090341 | 8 | 292 | 0.0 | 0.0 | 0.00 | 0.00 | 0.00 | 93 | 1006.0 |
| 20260510085716 | 8 | 292 | 0.0 | 0.0 | 0.00 | 0.00 | 0.00 | 93 | 1005.0 |
| 20260510083948 | 8 | 292 | 0.0 | 0.0 | 0.00 | 0.00 | 0.00 | 93 | 1005.0 |
| 20260510083352 | 8 | 292 | 0.0 | 0.0 | 0.00 | 0.00 | 0.00 | 93 | 1005.0 |
| 20260510082744 | 9 | 292 | 0.0 | 0.0 | 0.00 | 0.00 | 0.00 | 93 | 1005.0 |
| 20260510082119 | 9 | 292 | 0.0 | 0.0 | 0.00 | 0.00 | 0.00 | 93 | 1005.0 |
| 20260510081549 | 8 | 292 | 0.0 | 0.0 | 0.00 | 0.00 | 0.00 | 93 | 1005.0 |
| 20260510080918 | 8 | 292 | 0.0 | 0.0 | 0.00 | 0.00 | 0.00 | 93 | 1005.0 |
| 20260510080327 | 9 | 292 | 0.0 | 0.0 | 0.00 | 0.00 | 0.00 | 93 | 1005.0 |
| 20260510075750 | 8 | 292 | 0.0 | 0.0 | 0.00 | 0.00 | 0.00 | 93 | 1005.0 |
| 20260510074542 | 9 | 292 | 0.0 | 0.0 | 0.00 | 0.00 | 0.00 | 93 | 1005.0 |
| 20260510073942 | 9 | 292 | 0.0 | 0.0 | 0.00 | 0.00 | 0.00 | 93 | 1005.0 |
| 20260510073347 | 9 | 292 | 0.0 | 0.0 | 0.00 | 0.00 | 0.00 | 93 | 1005.0 |
| 20260510072734 | 8 | 292 | 0.0 | 0.0 | 0.00 | 0.00 | 0.00 | 93 | 1005.0 |
| 20260510072126 | 8 | 292 | 0.0 | 0.0 | 0.00 | 0.00 | 0.00 | 93 | 1005.0 |
| 20260510071546 | 8 | 292 | 0.0 | 0.0 | 0.00 | 0.00 | 0.00 | 93 | 1005.0 |
| 20260510070925 | 8 | 292 | 0.0 | 0.0 | 0.00 | 0.00 | 0.00 | 93 | 1005.0 |
| 20260510070312 | 8 | 292 | 0.0 | 0.0 | 0.00 | 0.00 | 0.00 | 93 | 1005.0 |
| 20260510065733 | 8 | 292 | 0.0 | 0.0 | 0.00 | 0.00 | 0.00 | 93 | 1005.0 |
| 20260510065141 | 8 | 292 | 0.0 | 0.0 | 0.00 | 0.00 | 0.00 | 93 | 1005.0 |
| 20260510063922 | 8 | 292 | 0.0 | 0.0 | 0.00 | 0.00 | 0.00 | 93 | 1005.0 |
| 20260510063330 | 8 | 292 | 0.0 | 0.0 | 0.00 | 0.00 | 0.00 | 93 | 1005.0 |
| 20260510062709 | 8 | 292 | 0.0 | 0.0 | 0.00 | 0.00 | 0.00 | 93 | 1005.0 |
| 20260510062146 | 8 | 292 | 0.0 | 0.0 | 0.00 | 0.00 | 0.00 | 93 | 1005.0 |
| 20260510061534 | 8 | 292 | 0.0 | 0.0 | 0.00 | 0.00 | 0.00 | 93 | 1005.0 |
| 20260510060949 | 8 | 292 | 0.0 | 0.0 | 0.00 | 0.00 | 0.00 | 93 | 1005.0 |
| 20260510060341 | 8 | 292 | 0.0 | 0.0 | 0.00 | 0.00 | 0.00 | 93 | 1005.0 |
| 20260510055725 | 8 | 292 | 0.0 | 0.0 | 0.00 | 0.00 | 0.00 | 93 | 1005.0 |
| 20260510055118 | 8 | 292 | 0.0 | 0.0 | 0.00 | 0.00 | 0.00 | 93 | 1005.0 |
| 20260510054538 | 8 | 292 | 0.0 | 0.0 | 0.00 | 0.00 | 0.00 | 93 | 1005.0 |
| 20260510053314 | 9 | 292 | 0.0 | 0.0 | 0.00 | 0.00 | 0.00 | 93 | 1005.0 |
| 20260510052149 | 9 | 292 | 0.0 | 0.0 | 0.00 | 0.00 | 0.00 | 93 | 1005.0 |
| 20260510051548 | 9 | 292 | 0.0 | 0.0 | 0.00 | 0.00 | 0.00 | 93 | 1005.0 |
| 20260510050912 | 9 | 292 | 0.0 | 0.0 | 0.00 | 0.00 | 0.00 | 93 | 1005.0 |
| 20260510050332 | 9 | 292 | 0.0 | 0.0 | 0.00 | 0.00 | 0.00 | 93 | 1005.0 |
| 20260510045721 | 10 | 292 | 0.0 | 0.0 | 0.00 | 0.00 | 0.00 | 93 | 1005.0 |
| 20260510045110 | 10 | 292 | 0.0 | 0.0 | 0.00 | 0.00 | 0.00 | 93 | 1005.0 |
| 20260510043931 | 10 | 292 | 0.0 | 0.0 | 0.00 | 0.00 | 0.00 | 93 | 1005.0 |
| 20260510043338 | 10 | 292 | 0.0 | 0.0 | 0.00 | 0.00 | 0.00 | 92 | 1005.0 |
| 20260510042711 | 10 | 292 | 0.0 | 0.0 | 0.00 | 0.00 | 0.00 | 92 | 1005.0 |
| 20260510042145 | 10 | 292 | 0.0 | 0.0 | 0.00 | 0.00 | 0.00 | 92 | 1005.0 |
| 20260510041533 | 10 | 292 | 0.0 | 0.0 | 0.00 | 0.00 | 0.00 | 92 | 1005.0 |
| 20260510040924 | 10 | 292 | 0.0 | 0.0 | 0.00 | 0.00 | 0.00 | 92 | 1005.0 |
| 20260510040343 | 10 | 292 | 0.0 | 0.0 | 0.00 | 0.00 | 0.00 | 92 | 1005.0 |
| 20260510035747 | 10 | 292 | 0.0 | 0.0 | 0.00 | 0.00 | 0.00 | 92 | 1005.0 |
| 20260510035123 | 10 | 292 | 0.0 | 0.0 | 0.00 | 0.00 | 0.00 | 92 | 1005.0 |
| 20260510034541 | 10 | 292 | 0.0 | 0.0 | 0.00 | 0.00 | 0.00 | 92 | 1004.0 |
| 20260510033909 | 11 | 292 | 0.0 | 0.0 | 0.00 | 0.00 | 0.00 | 92 | 1004.0 |
| 20260510033316 | 11 | 292 | 0.0 | 0.0 | 0.00 | 0.00 | 0.00 | 91 | 1004.0 |
| 20260510032752 | 11 | 292 | 0.0 | 0.0 | 0.00 | 0.00 | 0.00 | 91 | 1005.0 |
| 20260510032147 | 11 | 292 | 0.0 | 0.0 | 0.00 | 0.00 | 0.00 | 91 | 1005.0 |
| 20260510031524 | 11 | 292 | 0.0 | 0.0 | 0.00 | 0.00 | 0.00 | 91 | 1004.0 |
| 20260510030918 | 11 | 292 | 0.0 | 0.0 | 0.00 | 0.00 | 0.00 | 90 | 1004.0 |
| 20260510030328 | 11 | 292 | 0.0 | 0.0 | 0.00 | 0.00 | 0.00 | 90 | 1004.0 |
| 20260510025732 | 11 | 292 | 0.0 | 0.0 | 0.00 | 0.00 | 0.00 | 90 | 1004.0 |
| 20260510025122 | 11 | 292 | 0.0 | 0.0 | 0.00 | 0.00 | 0.00 | 90 | 1004.0 |
| 20260510023940 | 11 | 292 | 0.0 | 0.0 | 0.00 | 0.00 | 0.00 | 89 | 1004.0 |
| 20260510022739 | 12 | 292 | 0.0 | 0.0 | 0.00 | 0.00 | 0.00 | 88 | 1004.0 |
| 20260510021510 | 12 | 292 | 0.0 | 0.0 | 0.00 | 0.00 | 0.00 | 88 | 1004.0 |
| 20260510020952 | 12 | 292 | 0.0 | 0.0 | 0.00 | 0.00 | 0.00 | 87 | 1004.0 |
| 20260510015740 | 12 | 292 | 0.0 | 0.0 | 0.00 | 0.00 | 0.00 | 87 | 1004.0 |
| 20260510015143 | 12 | 292 | 0.0 | 0.0 | 0.00 | 0.00 | 0.00 | 86 | 1004.0 |
| 20260510014511 | 12 | 292 | 0.0 | 0.0 | 0.00 | 0.00 | 0.00 | 85 | 1003.0 |
| 20260510013946 | 12 | 292 | 0.0 | 0.0 | 0.00 | 0.00 | 0.00 | 84 | 1003.0 |
| 20260510012725 | 13 | 292 | 0.0 | 0.0 | 0.00 | 0.00 | 0.00 | 82 | 1003.0 |
| 20260510012131 | 13 | 292 | 0.0 | 0.0 | 0.00 | 0.00 | 0.00 | 82 | 1003.0 |
| 20260510011556 | 13 | 292 | 0.0 | 0.0 | 0.00 | 0.00 | 0.00 | 82 | 1003.0 |
| 20260510010951 | 13 | 292 | 0.0 | 0.0 | 0.00 | 0.00 | 0.00 | 81 | 1003.0 |
| 20260510010348 | 13 | 292 | 0.0 | 0.0 | 0.00 | 0.00 | 0.00 | 80 | 1003.0 |
| 20260510005143 | 14 | 292 | 0.0 | 0.0 | 0.00 | 0.00 | 0.00 | 77 | 1003.0 |
| 20260510004550 | 14 | 292 | 0.0 | 0.0 | 0.00 | 0.00 | 0.00 | 79 | 1002.0 |
| 20260510003307 | 15 | 292 | 0.0 | 0.0 | 0.00 | 0.00 | 0.00 | 76 | 1002.0 |
| 20260510002716 | 15 | 292 | 0.0 | 0.0 | 0.00 | 0.00 | 0.00 | 76 | 1002.0 |
| 20260510001511 | 16 | 292 | 0.0 | 0.0 | 0.00 | 0.00 | 0.00 | 70 | 1002.0 |
| 20260510000943 | 16 | 292 | 0.0 | 0.0 | 0.00 | 0.00 | 0.00 | 71 | 1002.0 |
| 20260510000349 | 16 | 292 | 0.0 | 0.0 | 0.00 | 0.00 | 0.00 | 69 | 1002.0 |
| 20260509235710 | 16 | 292 | 0.0 | 0.0 | 0.00 | 0.00 | 0.00 | 67 | 1002.0 |
| 20260509235126 | 17 | 292 | 0.0 | 0.0 | 0.00 | 0.00 | 0.00 | 66 | 1002.0 |
| 20260509234543 | 17 | 292 | 0.0 | 0.0 | 0.00 | 0.00 | 0.00 | 65 | 1002.0 |
| 20260509233949 | 17 | 292 | 0.0 | 0.0 | 0.00 | 0.00 | 0.00 | 64 | 1002.0 |
| 20260509233339 | 17 | 292 | 0.0 | 0.0 | 0.00 | 0.00 | 0.00 | 65 | 1002.0 |
| 20260509232130 | 17 | 292 | 0.0 | 0.0 | 0.00 | 0.00 | 0.00 | 61 | 1002.0 |
| 20260509231509 | 17 | 270 | 0.0 | 0.0 | 0.00 | 0.00 | 0.00 | 60 | 1001.0 |
| 20260509230951 | 18 | 270 | 0.0 | 0.0 | 0.00 | 0.00 | 0.00 | 62 | 1001.0 |
| 20260509230332 | 18 | 270 | 0.0 | 0.0 | 0.00 | 0.00 | 0.00 | 59 | 1001.0 |
| 20260509225146 | 20 | 270 | 0.0 | 0.0 | 0.00 | 0.00 | 0.00 | 57 | 1002.0 |
| 20260509224535 | 21 | 270 | 0.0 | 0.0 | 0.00 | 0.00 | 0.00 | 53 | 1001.0 |
| 20260509223928 | 22 | 270 | 1.6 | 1.6 | 0.00 | 0.00 | 0.00 | 49 | 1001.0 |
| 20260509223343 | 22 | 248 | 1.6 | 1.6 | 0.00 | 0.00 | 0.00 | 45 | 1001.0 |
| 20260509222130 | 22 | 248 | 3.2 | 3.2 | 0.00 | 0.00 | 0.00 | 38 | 1002.0 |
| 20260509220917 | 21 | 112 | 3.2 | 3.2 | 0.00 | 0.00 | 0.00 | 43 | 1002.0 |
| 20260509220325 | 21 | 202 | 3.2 | 3.2 | 0.00 | 0.00 | 0.00 | 44 | 1002.0 |
| 20260509215723 | 21 | 225 | 0.0 | 0.0 | 0.00 | 0.00 | 0.00 | 44 | 1002.0 |
| 20260509215134 | 21 | 68 | 3.2 | 3.2 | 0.00 | 0.00 | 0.00 | 45 | 1002.0 |
| 20260509214520 | 22 | 112 | 1.6 | 1.6 | 0.00 | 0.00 | 0.00 | 44 | 1002.0 |
| 20260509213334 | 22 | 270 | 3.2 | 3.2 | 0.00 | 0.00 | 0.00 | 43 | 1002.0 |
| 20260509212738 | 21 | 112 | 1.6 | 1.6 | 0.00 | 0.00 | 0.00 | 43 | 1002.0 |
| 20260509212145 | 21 | 248 | 3.2 | 3.2 | 0.00 | 0.00 | 0.00 | 43 | 1002.0 |
| 20260509211542 | 21 | 270 | 1.6 | 1.6 | 0.00 | 0.00 | 0.00 | 45 | 1001.0 |
| 20260509210931 | 21 | 248 | 3.2 | 3.2 | 0.00 | 0.00 | 0.00 | 43 | 1001.0 |
| 20260509210318 | 21 | 45 | 1.6 | 1.6 | 0.00 | 0.00 | 0.00 | 42 | 1001.0 |
| 20260509205747 | 22 | 68 | 0.0 | 0.0 | 0.00 | 0.00 | 0.00 | 43 | 1002.0 |